Weather History for KDOV - December, 2013

Change the Weather History Date:

Saturday, December 14, 2013

  Actual Average Record
Temperature  
Mean Temperature 40 °F -  
Max Temperature 52 °F 48 °F 64 °F (1991)
Min Temperature 28 °F 31 °F 8 °F (1960)
Degree Days  
Heating Degree Days 26    
Moisture  
Dew Point 41 °F    
Average Humidity 96    
Maximum Humidity 100    
Minimum Humidity 71    
Precipitation  
Precipitation 0.84 in - - ()
Sea Level Pressure  
Sea Level Pressure 29.99 in    
Wind  
Wind Speed 8 mph (ENE)    
Max Wind Speed 22 mph    
Max Gust Speed 29 mph    
Visibility 7 miles    
Events Rain    
Averages and records for this station are not official NWS values.
T = Trace of Precipitation, MM = Missing Value Source: NWS Daily Summary

Daily Weather History Graph

Daily Weather History Graph

Search for Another Location

Airport or City:

Trip Planner

Search our weather history database for the weather conditions in past years. The results will help you decide how hot, cold, wet, or windy it might be!

Date:

Astronomy

Dec. 14, 2013 Rise Set
Actual Time 7:13 AM EST 4:39 PM EST
Civil Twilight 6:43 AM EST 5:09 PM EST
Nautical Twilight 6:09 AM EST 5:43 PM EST
Astronomical Twilight 5:37 AM EST 6:16 PM EST
Moon 2:59 PM EST (12/14) 4:32 AM EST (12/14)
Length of Visible Light 10h 26m
Length of Day
9h 26m
Waxing Gibbous, 93% of the Moon is Illuminated
Dec 14
Waxing Gibbous
Dec 17
Full
Dec 25
Last Quarter
Jan 1
New
Jan 7
First Quarter

Hourly Weather History & Observations

Time (EST) Temp. Windchill Dew Point Humidity Pressure Visibility Wind Dir Wind Speed Gust Speed Precip Events Conditions
12:58 AM 31.5 °F 26.8 °F 25.0 °F 77% 30.33 in 10.0 mi South 4.6 mph - N/A   Clear
1:58 AM 29.8 °F - 24.6 °F 81% 30.32 in 10.0 mi Calm Calm - N/A   Clear
2:58 AM 30.2 °F - 24.6 °F 80% 30.34 in 10.0 mi East 2.3 mph - N/A   Clear
3:58 AM 28.9 °F - 27.0 °F 92% 30.32 in 10.0 mi North 2.3 mph - N/A   Clear
4:58 AM 30.0 °F 26.5 °F 27.5 °F 90% 30.33 in 10.0 mi North 3.5 mph - N/A   Clear
5:58 AM 31.8 °F - 29.3 °F 90% 30.36 in 10.0 mi Calm Calm - N/A   Mostly Cloudy
6:58 AM 34.0 °F 29.8 °F 33.8 °F 99% 30.35 in 10.0 mi ENE 4.6 mph - N/A   Clear
7:58 AM 37.4 °F 32.8 °F 28.9 °F 71% 30.35 in 10.0 mi ENE 5.8 mph - N/A   Mostly Cloudy
8:58 AM 37.2 °F 31.9 °F 32.5 °F 83% 30.36 in 10.0 mi ENE 6.9 mph - N/A   Partly Cloudy
9:58 AM 39.9 °F 33.9 °F 34.9 °F 82% 30.37 in 10.0 mi NE 9.2 mph - N/A   Overcast
10:58 AM 38.8 °F 32.1 °F 34.2 °F 83% 30.33 in 10.0 mi ENE 10.4 mph - N/A   Mostly Cloudy
11:58 AM 40.1 °F 34.7 °F 35.6 °F 84% 30.27 in 10.0 mi ENE 8.1 mph - N/A   Scattered Clouds
12:58 PM 41.7 °F 37.3 °F 37.6 °F 85% 30.23 in 10.0 mi Variable 6.9 mph - N/A   Scattered Clouds
1:31 PM 42.8 °F 38.0 °F 37.4 °F 81% 30.23 in 10.0 mi ENE 8.1 mph - N/A Rain Light Rain
1:58 PM 41.4 °F 36.8 °F 40.1 °F 95% 30.22 in 10.0 mi ENE 6.9 mph - 0.00 in Rain Light Rain
2:13 PM 41.0 °F 35.8 °F 41.0 °F 100% 30.20 in 10.0 mi East 8.1 mph - N/A Rain Light Rain
2:23 PM 41.0 °F 35.8 °F 41.0 °F 100% 30.19 in 10.0 mi ENE 8.1 mph - N/A Rain Light Rain
2:38 PM 41.0 °F 35.8 °F 41.0 °F 100% 30.18 in 10.0 mi ENE 8.1 mph - N/A Rain Light Rain
2:58 PM 40.6 °F 35.4 °F 40.3 °F 99% 30.20 in 9.0 mi ENE 8.1 mph - 0.03 in Rain Light Rain
3:33 PM 39.2 °F 32.5 °F 39.2 °F 100% 30.16 in 9.0 mi ENE 10.4 mph - N/A Rain Light Rain
3:58 PM 39.6 °F 32.5 °F 39.4 °F 99% 30.15 in 7.0 mi ENE 11.5 mph - 0.03 in Rain Light Rain
4:58 PM 40.3 °F 33.4 °F 40.3 °F 100% 30.10 in 7.0 mi ENE 11.5 mph - 0.07 in Rain Light Rain
5:13 PM 41.0 °F 33.9 °F 41.0 °F 100% 30.07 in 7.0 mi ENE 12.7 mph - N/A Rain Light Rain
5:58 PM 40.5 °F 33.2 °F 40.5 °F 100% 30.05 in 5.0 mi ENE 12.7 mph - 0.10 in Rain Light Rain
6:03 PM 41.0 °F 33.1 °F 41.0 °F 100% 30.03 in 5.0 mi ENE 15.0 mph - N/A Rain Light Rain
6:08 PM 41.0 °F 33.9 °F 41.0 °F 100% 30.03 in 5.0 mi ENE 12.7 mph - N/A Rain Light Rain
6:13 PM 41.0 °F 34.3 °F 41.0 °F 100% 30.03 in 5.0 mi NE 11.5 mph - N/A Rain Light Rain
6:23 PM 41.0 °F 33.9 °F 41.0 °F 100% 30.02 in 5.0 mi ENE 12.7 mph - N/A Rain Light Rain
6:28 PM 41.0 °F 35.2 °F 41.0 °F 100% 30.02 in 4.0 mi ENE 9.2 mph - N/A Rain Light Rain
6:38 PM 41.0 °F 34.3 °F 41.0 °F 100% 30.02 in 5.0 mi ENE 11.5 mph - N/A Rain Light Rain
6:43 PM 41.0 °F 34.7 °F 41.0 °F 100% 30.01 in 4.0 mi ENE 10.4 mph - N/A Rain Light Rain
6:48 PM 41.0 °F 34.3 °F 41.0 °F 100% 30.00 in 5.0 mi ENE 11.5 mph - N/A Rain Light Rain
6:58 PM 41.0 °F 36.4 °F 41.0 °F 100% 30.00 in 4.0 mi NE 6.9 mph - 0.07 in Rain Light Rain
7:03 PM 41.0 °F 35.8 °F 41.0 °F 100% 29.99 in 4.0 mi NE 8.1 mph - N/A Rain Light Rain
7:08 PM 41.0 °F 35.8 °F 41.0 °F 100% 29.98 in 4.0 mi ENE 8.1 mph - N/A Rain Light Rain
7:23 PM 42.8 °F 36.2 °F 42.8 °F 100% 29.96 in 5.0 mi ENE 12.7 mph - N/A Rain Light Rain
7:33 PM 42.8 °F 37.0 °F 42.8 °F 100% 29.95 in 6.0 mi ENE 10.4 mph - N/A Rain Light Rain
7:58 PM 42.6 °F 36.8 °F 42.6 °F 100% 29.94 in 6.0 mi NE 10.4 mph - 0.06 in Rain Light Rain
8:23 PM 42.8 °F 36.2 °F 42.8 °F 100% 29.89 in 5.0 mi ENE 12.7 mph - N/A Rain Light Rain
8:28 PM 42.8 °F 35.4 °F 42.8 °F 100% 29.88 in 5.0 mi East 15.0 mph - N/A Rain Light Rain
8:43 PM 42.8 °F 37.0 °F 42.8 °F 100% 29.87 in 4.0 mi ENE 10.4 mph - N/A Rain Light Rain
8:48 PM 42.8 °F 36.6 °F 42.8 °F 100% 29.86 in 6.0 mi ENE 11.5 mph - N/A Rain Light Rain
8:53 PM 44.6 °F 39.2 °F 44.6 °F 100% 29.85 in 5.0 mi ENE 10.4 mph - N/A Rain Light Rain
8:58 PM 44.1 °F 38.1 °F 44.1 °F 100% 29.85 in 5.0 mi East 11.5 mph - 0.09 in Rain Light Rain
9:13 PM 44.6 °F 37.8 °F 44.6 °F 100% 29.82 in 5.0 mi East 15.0 mph - N/A Rain Light Rain
9:18 PM 44.6 °F 38.8 °F 44.6 °F 100% 29.81 in 5.0 mi ENE 11.5 mph - N/A Rain Light Rain
9:28 PM 44.6 °F 38.1 °F 44.6 °F 100% 29.79 in 2.5 mi East 13.8 mph - N/A Rain Rain
9:33 PM 44.6 °F 39.7 °F 44.6 °F 100% 29.79 in 3.0 mi East 9.2 mph - N/A Rain Rain
9:58 PM 46.6 °F - 46.6 °F 100% 29.74 in 3.0 mi East 20.7 mph 28.8 mph 0.17 in Rain Light Rain
10:08 PM 48.2 °F - 48.2 °F 100% 29.72 in 5.0 mi East 21.9 mph 27.6 mph N/A Rain Light Rain
10:13 PM 48.2 °F - 48.2 °F 100% 29.71 in 6.0 mi East 19.6 mph 27.6 mph N/A Rain Light Rain
10:18 PM 46.4 °F 39.2 °F 46.4 °F 100% 29.70 in 5.0 mi East 18.4 mph 25.3 mph N/A Rain Light Rain
10:33 PM 48.2 °F - 48.2 °F 100% 29.67 in 3.0 mi ESE 19.6 mph - N/A Rain Light Rain
10:38 PM 48.2 °F - 48.2 °F 100% 29.67 in 2.5 mi ESE 18.4 mph 27.6 mph N/A Rain Light Rain
10:58 PM 48.9 °F - 48.9 °F 100% 29.65 in 2.5 mi ESE 15.0 mph - 0.19 in Rain Light Rain
11:03 PM 50.0 °F - 50.0 °F 100% 29.64 in 4.0 mi SE 15.0 mph - N/A Rain Light Rain
11:08 PM 50.0 °F - 50.0 °F 100% 29.64 in 6.0 mi SE 15.0 mph 20.7 mph N/A Rain Light Rain
11:23 PM 50.0 °F - 50.0 °F 100% 29.64 in 6.0 mi SE 10.4 mph - N/A Rain Light Rain
11:33 PM 50.0 °F - 50.0 °F 100% 29.63 in 6.0 mi ESE 8.1 mph - N/A Rain Light Rain
11:38 PM 50.0 °F - 50.0 °F 100% 29.63 in 6.0 mi SE 8.1 mph - N/A Rain Light Rain
11:48 PM 51.8 °F - 51.8 °F 100% 29.62 in 9.0 mi South 8.1 mph - N/A Rain Light Rain
11:53 PM 51.8 °F - 51.8 °F 100% 29.62 in 10.0 mi SSE 8.1 mph - N/A   Light Drizzle
11:58 PM 52.7 °F - 52.7 °F 100% 29.63 in 10.0 mi South 8.1 mph - 0.03 in   Light Drizzle